Location: Courçay
(47.2523°N, 0.8761°E)
Time: 20:23:20
(UTC+00:00)

Cosmos 2151 Rocket - Pass Details

Date: 18 November 2025
Orbit: 612 x 635 km, 82.5° (Epoch: 05 December)

Event Time Altitude Azimuth Distance (km) Brightness Sun altitude
Rises 17:53:13 0° 180° (S) 2,915 7.2 -16.0°
Reaches altitude 10° 17:55:27 10° 177° (S) 2,014 6.3 -16.4°
Maximum altitude 17:59:53 66° 96° (E) 699 3.5 -17.1°
Drops below altitude 10° 18:04:21 10° 15° (NNE) 2,034 6.0 -17.9°
Enters shadow 18:05:04 - 14° (NNE) 2,317 6.3 -18.0°
